DW0268 Weather Reports


Display with metric or nautical units.
time (UTC)temp
F
wind
direction
speed
MPH
gust
MPH
rain 1hr
in
rain 24hr
in
rain mn
in
humidity
%
barometer
mb
20240527061541 69 263 11.0 13.0 0.00 1.04 0.00 93 1007.2
20240527060036 68 252 8.0 10.0 0.00 1.04 0.00 94 1007.2
20240527054535 68 240 8.0 15.0 0.00 1.04 0.00 94 1007.4
20240527053031 68 240 8.0 12.0 0.00 1.04 0.00 95 1006.9
20240527051532 68 223 7.0 11.0 0.09 1.04 0.00 95 1006.9
20240527050029 67 250 9.0 13.0 0.34 1.04 0.00 95 1006.5
20240527044528 66 231 13.0 21.0 0.53 1.04 0.98 95 1006.8
20240527043027 65 207 10.0 12.0 0.65 1.04 0.98 94 1006.6
20240527041525 66 211 14.0 26.0 0.56 0.95 0.89 92 1007.5
20240527040126 67 252 23.0 42.0 0.32 0.71 0.65 91 1008.4
20240527034532 67 268 28.0 40.0 0.11 0.50 0.44 89 1008.2
20240527033029 70 282 32.0 49.0 0.00 0.39 0.33 82 1007.7
20240527031519 70 338 12.0 20.0 0.00 0.39 0.33 84 1007.7
20240527030019 69 317 8.0 19.0 0.00 0.39 0.33 87 1007.5
20240527024531 69 332 10.0 28.0 0.00 0.39 0.33 86 1006.3
20240527023018 81 250 9.0 21.0 0.00 0.39 0.33 85 1006.5
20240527021519 81 177 14.0 20.0 0.00 0.39 0.33 86 1004.3
20240527020018 81 194 15.0 21.0 0.00 0.39 0.33 86 1004.6
20240527014516 81 194 14.0 24.0 0.00 0.39 0.33 86 1004.4
20240527013015 81 190 13.0 22.0 0.00 0.39 0.33 85 1004.3
20240527011514 81 194 11.0 20.0 0.00 0.39 0.33 85 1005.0
20240527010018 81 184 12.0 19.0 0.00 0.39 0.33 85 1003.9
20240527004511 81 200 9.0 16.0 0.00 0.39 0.33 85 1005.2
20240527003011 82 203 9.0 17.0 0.00 0.39 0.33 84 1005.0
20240527001513 82 201 11.0 18.0 0.00 0.39 0.33 83 1004.7
20240527000009 82 196 12.0 21.0 0.00 0.39 0.33 82 1004.9
20240526234509 83 188 13.0 21.0 0.00 0.39 0.33 82 1005.2
20240526233008 83 178 12.0 29.0 0.00 0.39 0.33 82 1004.7
20240526231607 83 212 14.0 24.0 0.00 0.39 0.33 81 1004.9
20240526230014 83 219 14.0 22.0 0.00 0.39 0.33 82 1004.7
20240526224505 83 196 16.0 28.0 0.00 0.39 0.33 81 1004.7
20240526223003 83 204 17.0 24.0 0.00 0.39 0.33 81 1004.7
20240526221501 83 196 15.0 23.0 0.00 0.39 0.33 80 1004.8
20240526220003 84 190 15.0 26.0 0.00 0.39 0.33 81 1004.6
20240526214619 84 194 15.0 25.0 0.00 0.39 0.33 81 1004.9
20240526213057 84 200 18.0 25.0 0.00 0.39 0.33 80 1005.2
20240526211608 84 190 17.0 24.0 0.00 0.39 0.33 81 1005.4
20240526210154 84 186 16.0 26.0 0.00 0.39 0.33 81 1005.5
20240526204601 83 185 17.0 27.0 0.00 0.39 0.33 81 1005.6
20240526203052 84 182 14.0 26.0 0.00 0.39 0.33 83 1005.8
20240526201550 82 136 10.0 14.0 0.00 0.39 0.33 87 1005.6
20240526200046 83 175 9.0 16.0 0.00 0.39 0.33 87 1005.9
20240526194557 82 167 9.0 15.0 0.00 0.39 0.33 87 1006.1
20240526193041 81 173 13.0 18.0 0.00 0.39 0.33 87 1006.2
20240526191546 80 172 10.0 14.0 0.00 0.39 0.33 88 1006.4
20240526190034 79 178 7.0 12.0 0.00 0.39 0.33 88 1006.5
20240526184549 78 153 6.0 12.0 0.00 0.39 0.33 88 1007.1
20240526183029 76 123 7.0 11.0 0.00 0.39 0.33 88 1007.2
20240526181522 75 115 7.0 10.0 0.00 0.39 0.33 89 1007.4
20240526180023 73 124 5.0 9.0 0.00 0.39 0.33 93 1007.7
20240526174518 71 102 5.0 12.0 0.00 0.39 0.33 96 1008.3
20240526173011 70 103 5.0 9.0 0.00 0.39 0.33 97 1008.5
20240526171508 68 104 5.0 12.0 0.00 0.39 0.33 97 1008.8
20240526170009 67 109 6.0 11.0 0.00 0.39 0.33 97 1008.8
20240526164506 67 99 4.0 9.0 0.15 0.39 0.33 96 1009.2
20240526163005 67 82 3.0 11.0 0.33 0.39 0.33 96 1009.1
20240526161504 67 49 2.0 8.0 0.33 0.39 0.33 96 1009.3
20240526160000 66 25 4.0 11.0 0.33 0.39 0.33 94 1009.6
20240526154559 68 336 15.0 33.0 0.17 0.23 0.17 90 1010.5
20240526151523 76 259 13.0 20.0 0.07 0.07 0.07 91 1009.5
20240526150019 74 171 8.0 14.0 0.06 0.06 0.06 94 1007.3
20240526144518 75 186 8.0 11.0 0.00 0.00 0.00 92 1008.6
20240526143017 75 148 6.0 10.0 0.00 0.00 0.00 93 1007.6
20240526141512 73 182 4.0 7.0 0.00 0.00 0.00 93 1008.2
20240526140008 71 165 4.0 5.0 0.00 0.00 0.00 93 1008.3
20240526134504 71 138 2.0 4.0 0.00 0.00 0.00 92 1008.5
20240526121544 76 269 16.0 34.0 0.01 0.01 0.01 92 1009.2
20240526120056 75 160 12.0 22.0 0.00 0.00 0.00 92 1005.5
20240526114543 75 163 10.0 16.0 0.00 0.00 0.00 93 1006.3
20240526113039 75 180 9.0 16.0 0.00 0.00 0.00 94 1006.3
20240526111537 75 153 9.0 17.0 0.00 0.00 0.00 93 1006.2
20240526110038 75 138 8.0 14.0 0.00 0.00 0.00 93 1006.7
20240526104635 75 127 8.0 12.0 0.00 0.00 0.00 93 1007.1
20240526103034 75 132 6.0 10.0 0.00 0.00 0.00 93 1007.7
20240526101533 75 146 8.0 12.0 0.00 0.00 0.00 93 1007.3
20240526100032 75 129 7.0 12.0 0.00 0.00 0.00 93 1007.1
20240526094533 75 131 7.0 10.0 0.00 0.00 0.00 93 1007.2
20240526093026 75 138 4.0 9.0 0.00 0.00 0.00 93 1008.0
20240526091523 75 131 4.0 7.0 0.00 0.00 0.00 93 1008.1
20240526090038 75 131 3.0 7.0 0.00 0.00 0.00 93 1009.0
20240526084519 75 148 3.0 5.0 0.00 0.00 0.00 93 1009.6
20240526083018 75 133 4.0 8.0 0.00 0.00 0.00 93 1009.5
20240526081518 75 157 3.0 7.0 0.00 0.00 0.00 93 1010.0
20240526080017 75 155 3.0 6.0 0.00 0.00 0.00 93 1010.0
20240526074513 75 157 3.0 6.0 0.00 0.00 0.00 93 1010.2
20240526073012 75 165 3.0 6.0 0.00 0.00 0.00 93 1010.3
20240526071513 75 144 2.0 5.0 0.00 0.00 0.00 93 1010.4
20240526070014 75 175 2.0 4.0 0.00 0.00 0.00 93 1010.7
20240526064509 75 151 2.0 3.0 0.00 0.00 0.00 92 1010.8